H1 CPF 2 NER 2022 8 22 9 234 01 glonass132 H2 1401201 9132 39620 2022 8 22 0 0 0 2022 8 25 23 45 0 900 1 1 0 0 0 1 H9 10 0 59813 0.00000 0 -21384532.362 -13781384.914 -2130610.155 10 0 59813 900.00000 0 -21083324.509 -13370178.260 -5329303.560 10 0 59813 1800.00000 0 -20400576.158 -12821681.436 -8424701.105 10 0 59813 2700.00000 0 -19332316.596 -12194535.652 -11356769.328 10 0 59813 3600.00000 0 -17888158.636 -11548197.912 -14068607.731 10 0 59813 4500.00000 0 -16091093.875 -10940272.875 -16507550.709 10 0 59813 5400.00000 0 -13976741.457 -10423934.236 -18626189.891 10 0 59813 6300.00000 0 -11592079.918 -10045544.369 -20383297.144 10 0 59813 7200.00000 0 -8993713.288 -9842572.774 -21744630.218 10 0 59813 8100.00000 0 -6245741.940 -9841901.628 -22683605.291 10 0 59813 9000.00000 0 -3417325.274 -10058590.644 -23181823.004 10 0 59813 9900.00000 0 -580036.415 -10495154.395 -23229437.266 10 0 59813 10800.00000 0 2194882.104 -11141383.879 -22825358.989 10 0 59813 11700.00000 0 4839248.228 -11974721.313 -21977289.927 10 0 59813 12600.00000 0 7290542.542 -12961173.813 -20701584.997 10 0 59813 13500.00000 0 9494274.502 -14056728.826 -19022944.730 10 0 59813 14400.00000 0 11406014.025 -15209212.717 -16973942.835 10 0 59813 15300.00000 0 12993003.382 -16360514.824 -14594397.248 10 0 59813 16200.00000 0 14235281.928 -17449083.360 -11930596.368 10 0 59813 17100.00000 0 15126276.604 -18412587.588 -9034395.224 10 0 59813 18000.00000 0 15672833.705 -19190633.064 -5962199.441 10 0 59813 18900.00000 0 15894691.315 -19727414.207 -2773857.327 10 0 59813 19800.00000 0 15823415.691 -19974190.777 468517.423 10 0 59813 20700.00000 0 15500847.875 -19891482.262 3701768.140 10 0 59813 21600.00000 0 14977127.847 -19450886.196 6862937.549 10 0 59813 22500.00000 0 14308381.615 -18636442.649 9890504.521 10 0 59813 23400.00000 0 13554170.825 -17445486.624 12725589.748 10 0 59813 24300.00000 0 12774814.451 -15888952.187 15313105.980 10 0 59813 25200.00000 0 12028697.073 -13991115.556 17602829.850 10 0 59813 26100.00000 0 11369678.359 -11788788.316 19550374.296 10 0 59813 27000.00000 0 10844713.413 -9329995.025 21118043.063 10 0 59813 27900.00000 0 10491784.196 -6672191.005 22275551.493 10 0 59813 28800.00000 0 10338228.486 -3880095.091 23000600.676 10 0 59813 29700.00000 0 10399535.714 -1023227.734 23279295.201 10 0 59813 30600.00000 0 10678659.099 1826743.480 23106397.769 10 0 59813 31500.00000 0 11165871.727 4598741.182 22485417.053 10 0 59813 32400.00000 0 11839171.528 7224985.969 21428528.216 10 0 59813 33300.00000 0 12665217.285 9643563.657 19956328.459 10 0 59813 34200.00000 0 13600755.894 11800747.180 18097432.791 10 0 59813 35100.00000 0 14594480.853 13652978.636 15887918.018 10 0 59813 36000.00000 0 15589244.205 15168431.119 13370625.462 10 0 59813 36900.00000 0 16524529.580 16328087.087 10594335.513 10 0 59813 37800.00000 0 17339083.148 17126290.081 7612829.330 10 0 59813 38700.00000 0 17973592.698 17570748.124 4483855.060 10 0 59813 39600.00000 0 18373302.891 17681989.691 1268017.903 10 0 59813 40500.00000 0 18490457.201 17492295.753 -1972385.259 10 0 59813 41400.00000 0 18286464.051 17044153.065 -5174564.811 10 0 59813 42300.00000 0 17733695.863 16388293.669 -8276448.144 10 0 59813 43200.00000 0 16816844.824 15581402.890 -11217877.287 10 0 59813 44100.00000 0 15533777.364 14683591.921 -13941771.549 10 0 59813 45000.00000 0 13895850.136 13755740.966 -16395232.827 10 0 59813 45900.00000 0 11927672.491 12856824.461 -18530572.356 10 0 59813 46800.00000 0 9666323.423 12041330.729 -20306239.050 10 0 59813 47700.00000 0 7160053.697 11356884.644 -21687631.334 10 0 59813 48600.00000 0 4466525.251 10842173.539 -22647776.580 10 0 59813 49500.00000 0 1650659.300 10525264.091 -23167864.633 10 0 59813 50400.00000 0 -1217818.850 10422381.695 -23237624.538 10 0 59813 51300.00000 0 -4067037.506 10537204.616 -22855536.491 10 0 59813 52200.00000 0 -6825729.302 10860703.673 -22028874.059 10 0 59813 53100.00000 0 -9425960.934 11371535.357 -20773574.861 10 0 59813 54000.00000 0 -11805728.663 12036972.855 -19113941.223 10 0 59813 54900.00000 0 -13911311.347 12814336.642 -17082175.616 10 0 59813 55800.00000 0 -15699282.575 13652864.877 -14717759.112 10 0 59813 56700.00000 0 -17138097.579 14495944.837 -12066684.344 10 0 59813 57600.00000 0 -18209188.289 15283610.925 -9180557.614 10 0 59813 58500.00000 0 -18907520.597 15955202.930 -6115587.851 10 0 59813 59400.00000 0 -19241590.785 16452071.113 -2931482.628 10 0 59813 60300.00000 0 -19232861.990 16720212.312 309726.355 10 0 59813 61200.00000 0 -18914665.553 16712724.104 3544904.105 10 0 59813 62100.00000 0 -18330615.118 16391971.781 6711054.381 10 0 59813 63000.00000 0 -17532602.122 15731375.267 9746557.331 10 0 59813 63900.00000 0 -16578459.176 14716739.568 12592377.264 10 0 59813 64800.00000 0 -15529391.744 13347071.979 15193216.113 10 0 59813 65700.00000 0 -14447288.055 11634851.397 17498589.562 10 0 59813 66600.00000 0 -13392021.819 9605738.464 19463804.698 10 0 59813 67500.00000 0 -12418862.017 7297738.950 21050820.616 10 0 59813 68400.00000 0 -11576098.849 4759855.725 22228975.997 10 0 59813 69300.00000 0 -10902985.184 2050285.938 22975570.640 10 0 59813 70200.00000 0 -10428079.015 -765761.319 23276291.010 10 0 59813 71100.00000 0 -10168055.182 -3618536.267 23125472.936 10 0 59813 72000.00000 0 -10127034.730 -6436406.362 22526197.668 10 0 59813 72900.00000 0 -10296458.511 -9148591.420 21490220.587 10 0 59813 73800.00000 0 -10655508.990 -11687863.743 20037734.733 10 0 59813 74700.00000 0 -11172061.506 -13993102.609 18196974.284 10 0 59813 75600.00000 0 -11804124.391 -16011598.847 16003665.774 10 0 59813 76500.00000 0 -12501707.201 -17701015.539 13500337.466 10 0 59813 77400.00000 0 -13209038.671 -19030924.990 10735499.882 10 0 59813 78300.00000 0 -13867041.541 -19983859.568 7762712.633 10 0 59813 79200.00000 0 -14415960.712 -20555833.940 4639554.911 10 0 59813 80100.00000 0 -14798034.729 -20756317.911 1426518.797 10 0 59813 81000.00000 0 -14960098.640 -20607661.715 -1814153.908 10 0 59813 81900.00000 0 -14856008.896 -20143998.235 -5019669.514 10 0 59813 82800.00000 0 -14448788.191 -19409668.243 -8127892.222 10 0 59813 83700.00000 0 -13712399.532 -18457234.617 -11078542.874 10 0 59813 84600.00000 0 -12633074.067 -17345168.585 -13814363.849 10 0 59813 85500.00000 0 -11210135.612 -16135304.759 -16282227.662 10 0 59814 0.00000 0 -9456285.784 -14890171.588 -18434167.844 10 0 59814 900.00000 0 -7397334.796 -13670308.303 -20228313.261 10 0 59814 1800.00000 0 -5071389.485 -12531682.520 -21629704.856 10 0 59814 2700.00000 0 -2527527.093 -11523314.656 -22610982.704 10 0 59814 3600.00000 0 175989.794 -10685210.728 -23152926.753 10 0 59814 4500.00000 0 2973885.545 -10046690.064 -23244841.471 10 0 59814 5400.00000 0 5796342.194 -9625178.812 -22884776.046 10 0 59814 6300.00000 0 8571667.027 -9425520.662 -22079575.026 10 0 59814 7200.00000 0 11229046.837 -9439834.533 -20844757.431 10 0 59814 8100.00000 0 13701274.658 -9647925.990 -19204225.671 10 0 59814 9000.00000 0 15927335.439 -10018235.679 -17189808.899 10 0 59814 9900.00000 0 17854742.478 -10509285.251 -14840648.888 10 0 59814 10800.00000 0 19441526.644 -11071559.799 -12202439.749 10 0 59814 11700.00000 0 20657794.745 -11649747.035 -9326536.003 10 0 59814 12600.00000 0 21486791.358 -12185237.824 -6268946.570 10 0 59814 13500.00000 0 21925419.558 -12618781.210 -3089234.795 10 0 59814 14400.00000 0 21984198.973 -12893180.183 150653.180 10 0 59814 15300.00000 0 21686663.664 -12955912.538 3387607.584 10 0 59814 16200.00000 0 21068226.370 -12761564.284 6558596.575 10 0 59814 17100.00000 0 20174558.505 -12273971.216 9601904.674 10 0 59814 18000.00000 0 19059555.913 -11467976.883 12458342.531 10 0 59814 18900.00000 0 17782977.928 -10330731.857 15072403.564 10 0 59814 19800.00000 0 16407860.833 -8862478.933 17393344.335 10 0 59814 20700.00000 0 14997815.974 -7076791.072 19376167.455 10 0 59814 21600.00000 0 13614327.037 -5000252.103 20982488.272 10 0 59814 22500.00000 0 12314160.337 -2671593.741 22181269.284 10 0 59814 23400.00000 0 11146996.608 -140325.271 22949409.061 10 0 59814 24300.00000 0 10153382.719 2535086.806 23272175.621 10 0 59814 25200.00000 0 9363087.863 5289413.487 23143477.229 10 0 59814 26100.00000 0 8793931.460 8053141.340 22565966.690 10 0 59814 27000.00000 0 8451130.072 10755131.732 21550978.261 10 0 59814 27900.00000 0 8327188.947 13325351.846 20118299.242 10 0 59814 28800.00000 0 8402341.188 15697565.332 18295781.172 10 0 59814 29700.00000 0 8645514.926 17811872.408 16118798.329 10 0 59814 30600.00000 0 9015787.054 19616995.489 13629563.808 10 0 59814 31500.00000 0 9464262.100 21072216.786 10876316.017 10 0 59814 32400.00000 0 9936297.187 22148888.701 7912390.713 10 0 59814 33300.00000 0 10373979.727 22831455.325 4795195.733 10 0 59814 34200.00000 0 10718753.951 23117943.300 1585107.608 10 0 59814 35100.00000 0 10914086.057 23019902.251 -1655689.368 10 0 59814 36000.00000 0 10908056.011 22561797.603 -4864399.823 10 0 59814 36900.00000 0 10655766.880 21779881.266 -7978827.038 10 0 59814 37800.00000 0 10121469.957 20720587.332 -10938572.787 10 0 59814 38700.00000 0 9280315.544 19438519.636 -13686204.444 10 0 59814 39600.00000 0 8119654.699 17994115.086 -16168366.866 10 0 59814 40500.00000 0 6639835.741 16451080.213 -18336817.759 10 0 59814 41400.00000 0 4854460.196 14873707.871 -20149366.500 10 0 59814 42300.00000 0 2790085.377 13324186.205 -21570698.142 10 0 59814 43200.00000 0 485383.684 11860012.365 -22573066.473 10 0 59814 44100.00000 0 -2010208.593 10531619.241 -23136842.396 10 0 59814 45000.00000 0 -4638298.760 9380314.788 -23250906.428 10 0 59814 45900.00000 0 -7333728.143 8436620.569 -22912877.110 10 0 59814 46800.00000 0 -10027055.834 7719079.572 -22129169.992 10 0 59814 47700.00000 0 -12647233.382 7233583.847 -20914885.128 10 0 59814 48600.00000 0 -15124359.738 6973250.697 -19293524.225 10 0 59814 49500.00000 0 -17392401.850 6918852.995 -17296541.931 10 0 59814 50400.00000 0 -19391767.124 7039785.802 -14962739.173 10 0 59814 51300.00000 0 -21071619.865 7295528.445 -12337509.708 10 0 59814 52200.00000 0 -22391844.170 7637539.972 -9471954.228 10 0 59814 53100.00000 0 -23324570.361 8011507.151 -6421879.465 10 0 59814 54000.00000 0 -23855200.548 8359848.793 -3246702.259 10 0 59814 54900.00000 0 -23982890.082 8624368.983 -8280.830 10 0 59814 55800.00000 0 -23720464.932 8748945.249 3230302.682 10 0 59814 56700.00000 0 -23093779.234 8682136.137 6405983.333 10 0 59814 57600.00000 0 -22140541.202 8379596.170 9456952.574 10 0 59814 58500.00000 0 -20908658.323 7806194.619 12323870.012 10 0 59814 59400.00000 0 -19454173.181 6937747.432 14951023.165 10 0 59814 60300.00000 0 -17838878.365 5762288.418 17287412.041 10 0 59814 61200.00000 0 -16127712.229 4280825.792 19287737.200 10 0 59814 62100.00000 0 -14386045.890 2507552.099 20913272.458 10 0 59814 63000.00000 0 -12676975.854 469498.769 22132606.041 10 0 59814 63900.00000 0 -11058735.678 -1794349.967 22922236.844 10 0 59814 64800.00000 0 -9582334.397 -4234446.733 23267015.575 10 0 59814 65700.00000 0 -8289519.277 -6792516.266 23160423.647 10 0 59814 66600.00000 0 -7211146.507 -9403760.035 22604685.683 10 0 59814 67500.00000 0 -6366026.020 -11999339.121 21610714.643 10 0 59814 68400.00000 0 -5760286.731 -14509032.947 20197891.468 10 0 59814 69300.00000 0 -5387286.876 -16863964.481 18393684.021 10 0 59814 70200.00000 0 -5228071.492 -18999279.919 16233112.897 10 0 59814 71100.00000 0 -5252356.540 -20856672.936 13758074.225 10 0 59814 72000.00000 0 -5419997.461 -22386649.786 11016532.210 10 0 59814 72900.00000 0 -5682879.983 -23550442.292 8061596.390 10 0 59814 73800.00000 0 -5987153.496 -24321490.112 4950500.698 10 0 59814 74700.00000 0 -6275713.157 -24686431.228 1743503.414 10 0 59814 75600.00000 0 -6490826.410 -24645559.905 -1497271.490 10 0 59814 76500.00000 0 -6576793.514 -24212733.184 -4709029.854 10 0 59814 77400.00000 0 -6482530.101 -23414729.805 -7829517.003 10 0 59814 78300.00000 0 -6163962.801 -22290088.095 -10798218.665 10 0 59814 79200.00000 0 -5586136.572 -20887470.992 -13557530.220 10 0 59814 80100.00000 0 -4724944.216 -19263626.044 -16053871.818 10 0 59814 81000.00000 0 -3568404.066 -17481025.135 -18238727.951 10 0 59814 81900.00000 0 -2117430.529 -15605282.005 -20069591.433 10 0 59814 82800.00000 0 -386063.185 -13702455.070 -21510793.387 10 0 59814 83700.00000 0 1598857.379 -11836347.862 -22534203.038 10 0 59814 84600.00000 0 3798555.854 -10065919.618 -23119783.446 10 0 59814 85500.00000 0 6163696.661 -8442914.227 -23255991.856 10 0 59815 0.00000 0 8636211.190 -7009806.777 -22940016.349 10 0 59815 900.00000 0 11151504.813 -5798153.088 -22177843.069 10 0 59815 1800.00000 0 13640949.687 -4827413.492 -20984152.299 10 0 59815 2700.00000 0 16034564.757 -4104297.884 -19382043.796 10 0 59815 3600.00000 0 18263768.309 -3622661.724 -17402596.051 10 0 59815 4500.00000 0 20264089.286 -3363956.671 -15084267.090 10 0 59815 5400.00000 0 21977723.435 -3298216.845 -12472147.855 10 0 59815 6300.00000 0 23355826.545 -3385538.678 -9617082.371 10 0 59815 7200.00000 0 24360447.813 -3577991.111 -6574671.990 10 0 59815 8100.00000 0 24966021.488 -3821874.206 -3404183.587 10 0 59815 9000.00000 0 25160353.577 -4060229.171 -167383.842 10 0 59815 9900.00000 0 24945061.954 -4235491.843 3072676.393 10 0 59815 10800.00000 0 24335451.630 -4292175.480 6252902.622 10 0 59815 11700.00000 0 23359831.150 -4179467.461 9311396.554 10 0 59815 12600.00000 0 22058299.983 -3853628.463 12188669.741 10 0 59815 13500.00000 0 20481059.346 -3280091.307 14828806.396 10 0 59815 14400.00000 0 18686318.906 -2435169.869 17180552.127 10 0 59815 15300.00000 0 16737888.759 -1307305.432 19198307.145 10 0 59815 16200.00000 0 14702558.838 102202.243 20843004.998 10 0 59815 17100.00000 0 12647376.236 1779009.870 22082860.478 10 0 59815 18000.00000 0 10636934.609 3696099.137 22893973.220 10 0 59815 18900.00000 0 8730788.548 5814683.187 23260776.645 10 0 59815 19800.00000 0 6981099.849 8085613.118 23176324.915 10 0 59815 20700.00000 0 5430612.514 10451225.878 22642413.672 10 0 59815 21600.00000 0 4111039.028 12847556.938 21669533.393 10 0 59815 22500.00000 0 3041923.174 15206826.310 20276657.101 10 0 59815 23400.00000 0 2230024.776 17460095.260 18490867.115 10 0 59815 24300.00000 0 1669250.031 19539984.362 16346828.195 10 0 59815 25200.00000 0 1341128.596 21383340.980 13886117.152 10 0 59815 26100.00000 0 1215816.129 22933746.313 11156421.465 10 0 59815 27000.00000 0 1253579.216 24143758.731 8210621.819 10 0 59815 27900.00000 0 1406699.753 24976800.851 5105775.542 10 0 59815 28800.00000 0 1621718.539 25408612.296 1902019.921 10 0 59815 29700.00000 0 1841923.596 25428207.927 -1338584.115 10 0 59815 30600.00000 0 2009978.579 25038301.654 -4553246.274 10 0 59815 31500.00000 0 2070580.658 24255177.913 -7679656.446 10 0 59815 32400.00000 0 1973035.823 23108015.820 -10657186.637 10 0 59815 33300.00000 0 1673642.849 21637693.569 -13428062.337 10 0 59815 34200.00000 0 1137784.972 19895122.374 -15938480.830 10 0 59815 35100.00000 0 341640.242 17939178.687 -18139654.992 10 0 59815 36000.00000 0 -726562.682 15834320.279 -19988762.429 10 0 59815 36900.00000 0 -2065797.761 13647984.937 -21449781.469 10 0 59815 37800.00000 0 -3662037.171 11447879.731 -22494197.696 10 0 59815 38700.00000 0 -5488600.096 9299273.376 -23101567.022 10 0 59815 39600.00000 0 -7507042.368 7262404.440 -23259923.864 10 0 59815 40500.00000 0 -9668552.020 5390113.315 -22966025.885 10 0 59815 41400.00000 0 -11915794.470 3725796.804 -22225429.715 10 0 59815 42300.00000 0 -14185131.867 2301770.969 -21052395.222 10 0 59815 43200.00000 0 -16409125.115 1138110.786 -19469619.175 10 0 59815 44100.00000 0 -18519214.736 242015.372 -17507802.458 10 0 59815 45000.00000 0 -20448468.544 -392274.570 -15205058.393 10 0 59815 45900.00000 0 -22134280.842 -783003.822 -12606173.021 10 0 59815 46800.00000 0 -23520909.358 -959894.631 -9761731.418 10 0 59815 47700.00000 0 -24561742.507 -962646.861 -6727127.138 10 0 59815 48600.00000 0 -25221200.803 -839010.822 -3561474.604 10 0 59815 49500.00000 0 -25476191.633 -642515.728 -326446.416 10 0 59815 50400.00000 0 -25317055.537 -429951.571 2914940.438 10 0 59815 51300.00000 0 -24747964.025 -258712.931 6099564.513 10 0 59815 52200.00000 0 -23786752.361 -184119.038 9165440.400 10 0 59815 53100.00000 0 -22464195.081 -256825.238 12052934.215 10 0 59815 54000.00000 0 -20822755.711 -520436.881 14705929.423 10 0 59815 54900.00000 0 -18914864.476 -1009427.563 17072919.659 10 0 59815 55800.00000 0 -16800797.594 -1747450.287 19108007.022 10 0 59815 56700.00000 0 -14546248.196 -2746113.071 20771786.735 10 0 59815 57600.00000 0 -12219691.329 -4004270.522 22032101.751 10 0 59815 58500.00000 0 -9889653.595 -5507860.892 22864653.642 10 0 59815 59400.00000 0 -7622001.199 -7230295.160 23253459.301 10 0 59815 60300.00000 0 -5477358.684 -9133381.634 23191145.981 10 0 59815 61200.00000 0 -3508764.681 -11168747.268 22679080.262 10 0 59815 62100.00000 0 -1759660.544 -13279696.517 21727329.662 10 0 59815 63000.00000 0 -262293.556 -15403430.650 20354458.452 10 0 59815 63900.00000 0 963400.855 -17473535.601 18587162.212 10 0 59815 64800.00000 0 1910393.519 -19422635.634 16459748.357 10 0 59815 65700.00000 0 2584609.720 -21185103.251 14013472.552 10 0 59815 66600.00000 0 3004430.840 -22699713.445 11295743.456 10 0 59815 67500.00000 0 3199671.699 -23912132.611 8359210.569 10 0 59815 68400.00000 0 3210077.395 -24777139.151 5260752.090 10 0 59815 69300.00000 0 3083403.328 -25260483.638 2060381.669 10 0 59815 70200.00000 0 2873159.363 -25340311.203 -1179905.545 10 0 59815 71100.00000 0 2636113.155 -25008086.695 -4397325.900 10 0 59815 72000.00000 0 2429657.641 -24268983.656 -7529516.659 10 0 59815 72900.00000 0 2309153.636 -23141720.305 -10515738.907 10 0 59815 73800.00000 0 2325359.551 -21657848.545 -13298051.009 10 0 59815 74700.00000 0 2522056.873 -19860524.783 -15822430.076 10 0 59815 75600.00000 0 2933971.989 -17802812.837 -18039819.900 10 0 59815 76500.00000 0 3585082.834 -15545588.643 -19907085.178 10 0 59815 77400.00000 0 4487382.881 -13155133.189 -21387853.419 10 0 59815 78300.00000 0 5640156.067 -10700513.074 -22453228.145 10 0 59815 79200.00000 0 7029795.078 -8250857.038 -23082359.245 10 0 59815 80100.00000 0 8630172.686 -5872641.404 -23262858.944 10 0 59815 81000.00000 0 10403552.767 -3627097.112 -22991054.692 10 0 59815 81900.00000 0 12302004.917 -1567846.176 -22272073.249 10 0 59815 82800.00000 0 14269265.217 261133.819 -21119753.345 10 0 59815 83700.00000 0 16242966.678 1827132.192 -19556387.631 10 0 59815 84600.00000 0 18157146.917 3109846.714 -17612297.867 10 0 59815 85500.00000 0 19944928.357 4101996.375 -15325250.771 10 0 59816 0.00000 0 21541258.314 4809379.795 -12739725.463 10 0 59816 900.00000 0 22885594.235 5250377.603 -9906044.956 10 0 59816 1800.00000 0 23924418.211 5454919.515 -6879392.272 10 0 59816 2700.00000 0 24613476.816 5462962.066 -3718726.147 10 0 59816 3600.00000 0 24919648.703 5322541.667 -485621.711 10 0 59816 4500.00000 0 24822361.275 5087487.439 2756941.362 10 0 59816 5400.00000 0 24314495.975 4814892.399 5945818.060 10 0 59816 6300.00000 0 23402743.850 4562451.988 9018939.051 10 0 59816 7200.00000 0 22107396.618 4385784.387 11916527.941 10 0 59816 8100.00000 0 20461582.648 4335847.653 14582270.039 10 0 59816 9000.00000 0 18509980.833 4456564.074 16964409.242 10 0 59816 9900.00000 0 16307067.434 4782752.924 19016751.381 10 0 59816 10800.00000 0 13914970.346 5338459.208 20699554.829 10 0 59816 11700.00000 0 11401021.390 6135748.791 21980291.795 10 0 59816 12600.00000 0 8835109.360 7174020.283 22834266.512 10 0 59816 13500.00000 0 6286944.199 8439862.111 23245079.676 10 0 59816 14400.00000 0 3823345.703 9907460.327 23204931.545 10 0 59816 15300.00000 0 1505668.568 11539539.641 22714759.131 10 0 59816 16200.00000 0 -612530.690 13288798.204 21784206.034 10 0 59816 17100.00000 0 -2487489.868 15099776.285 20431426.379 10 0 59816 18000.00000 0 -4086819.273 16911081.171 18682727.204 10 0 59816 18900.00000 0 -5390598.527 18657876.082 16572056.432 10 0 59816 19800.00000 0 -6391948.436 20274530.032 14140346.152 10 0 59816 20700.00000 0 -7097055.858 21697318.901 11434723.568 10 0 59816 21600.00000 0 -7524652.212 22867065.818 8507604.244 10 0 59816 22500.00000 0 -7704968.655 23731611.343 5415684.430 10 0 59816 23400.00000 0 -7678212.549 24248010.707 2218851.297 10 0 59816 24300.00000 0 -7492629.707 24384366.552 -1020968.590 10 0 59816 25200.00000 0 -7202234.101 24121220.473 -4241000.964 10 0 59816 26100.00000 0 -6864300.557 23452444.770 -7378833.077 10 0 59816 27000.00000 0 -6536725.978 22385596.464 -10373617.538 10 0 59816 27900.00000 0 -6275370.225 20941717.806 -13167247.821 10 0 59816 28800.00000 0 -6131488.740 19154590.489 -15705482.845 10 0 59816 29700.00000 0 -6149365.401 17069473.397 -17938999.043 10 0 59816 30600.00000 0 -6364245.844 14741375.187 -19824349.664 10 0 59816 31500.00000 0 -6800659.151 12232932.458 -21324812.611 10 0 59816 32400.00000 0 -7471199.733 9611980.618 -22411110.296 10 0 59816 33300.00000 0 -8375822.161 6948917.495 -23061987.289 10 0 59816 34200.00000 0 -9501680.324 4313968.625 -23264634.053 10 0 59816 35100.00000 0 -10823519.611 1774467.311 -23014947.940 10 0 59816 36000.00000 0 -12304607.569 -607737.713 -22317625.591 10 0 59816 36900.00000 0 -13898165.793 -2778639.233 -21186083.957 10 0 59816 37800.00000 0 -15549244.453 -4694094.877 -19642210.512 10 0 59816 38700.00000 0 -17196961.955 -6321432.379 -17715946.432 10 0 59816 39600.00000 0 -18777016.249 -7640569.521 -15444710.012 10 0 59816 40500.00000 0 -20224362.396 -8644601.996 -12872670.836 10 0 59816 41400.00000 0 -21475943.411 -9339834.787 -10049888.446 10 0 59816 42300.00000 0 -22473358.581 -9745256.303 -7031332.386 10 0 59816 43200.00000 0 -23165355.806 -9891478.344 -3875803.108 10 0 59816 44100.00000 0 -23510041.659 -9819187.931 -644775.604 10 0 59816 45000.00000 0 -23476714.805 -9577177.939 2598810.468 10 0 59816 45900.00000 0 -23047244.499 -9220041.676 5791789.262 10 0 59816 46800.00000 0 -22216935.405 -8805630.874 8872010.262 10 0 59816 47700.00000 0 -20994842.055 -8392386.540 11779557.272 10 0 59816 48600.00000 0 -19403519.934 -8036657.302 14457920.070 10 0 59816 49500.00000 0 -17478224.107 -7790120.008 16855095.280 10 0 59816 50400.00000 0 -15265589.873 -7697412.475 18924594.700 10 0 59816 51300.00000 0 -12821851.532 -7794078.737 20626341.782 10 0 59816 52200.00000 0 -10210674.493 -8104913.437 21927439.548 10 0 59816 53100.00000 0 -7500691.821 -8642774.629 22802796.023 10 0 59816 54000.00000 0 -4762847.976 -9407914.293 23235596.417 10 0 59816 54900.00000 0 -2067659.945 -10387853.931 23217614.271 10 0 59816 55800.00000 0 517491.134 -11557809.729 22749356.894 10 0 59816 56700.00000 0 2930926.677 -12881648.974 21840043.462 10 0 59816 57600.00000 0 5118990.805 -14313337.421 20507417.094 10 0 59816 58500.00000 0 7038029.460 -15798817.074 18777395.103 10 0 59816 59400.00000 0 8655948.365 -17278236.192 16683564.404 10 0 59816 60300.00000 0 9953287.145 -18688438.852 14266531.689 10 0 59816 61200.00000 0 10923766.741 -19965610.642 11573140.575 10 0 59816 62100.00000 0 11574289.040 -21047970.602 8655570.261 10 0 59816 63000.00000 0 11924390.164 -21878397.503 5570332.373 10 0 59816 63900.00000 0 12005171.258 -22406881.008 2377184.740 10 0 59816 64800.00000 0 11857752.366 -22592695.440 -862017.645 10 0 59816 65700.00000 0 11531314.654 -22406205.041 -4084512.927 10 0 59816 66600.00000 0 11080813.368 -21830224.782 -7227841.345 10 0 59816 67500.00000 0 10564457.722 -20860879.033 -10231049.966 10 0 59816 68400.00000 0 10041063.688 -19507921.086 -13035870.180 10 0 59816 69300.00000 0 9567391.064 -17794498.923 -15587845.353 10 0 59816 70200.00000 0 9195577.016 -15756375.503 -17837386.986 10 0 59816 71100.00000 0 8970774.400 -13440634.465 -19740739.033 10 0 59816 72000.00000 0 8929094.753 -10903923.689 -21260831.597 10 0 59816 72900.00000 0 9095943.330 -8210308.257 -22368007.398 10 0 59816 73800.00000 0 9484817.270 -5428820.780 -23040606.651 10 0 59816 74700.00000 0 10096618.779 -2630809.860 -23265398.543 10 0 59816 75600.00000 0 10919513.724 112804.026 -23037850.345 10 0 59816 76500.00000 0 11929343.256 2734251.766 -22362228.133 10 0 59816 77400.00000 0 13090572.730 5171504.961 -21251526.217 10 0 59816 78300.00000 0 14357739.516 7370623.767 -19727225.629 10 0 59816 79200.00000 0 15677339.964 9287765.304 -17818885.336 10 0 59816 80100.00000 0 16990076.882 10890768.622 -15563573.230 10 0 59816 81000.00000 0 18233373.156 12160249.917 -13005147.295 10 0 59816 81900.00000 0 19344045.411 13090162.185 -10193400.512 10 0 59816 82800.00000 0 20261024.263 13687796.136 -7183086.256 10 0 59816 83700.00000 0 20928005.360 13973223.050 -4032843.571 10 0 59816 84600.00000 0 21295918.040 13978204.116 -804044.044 10 0 59816 85500.00000 0 21325106.029 13744613.674 2440415.993 99